COSMOS 2526

Last updated on Sat Apr 13 2024 01:02:39 GMT+0100 (British Summer Time)

1 43432U 18037A 24103.54622111 -.00000353 00000+0 00000+0 0 9997 2 43432 0.0282 120.2382 0000611 304.3073 101.3824 1.00271662 21991
UTC large
Height (km)
Speed (km/s)
/
Latitude / Longitude
Inclination (degrees)
Orbital Period (minutes)
Azimuth
Elevation
Range (km)
Doppler Factor

Next 0 passes for location: London (51.5072 / 0.1276)

Sorry there are no passes over London.